Dewpoint
50 39 39 37 23 25 21 22 24 25 38 54 46 48 43 54 46 37 62 59 64 66 70 71 70 70 69 69 69 70 70 70 71 71 70 70 71 70 70 70 70 71 70 68 68 67 66 67 68
48 33 33 28 21 13 21 23 24 32 53 59 57 57 55 52 62 61 57 63 64 67 69 70 71 71 70 70 69 70 71 70 70 71 71 71 70 70 71 71 70 71 70 69 68 67 66 66 66
41 36 29 26 23 14 16 17 17 20 57 54 59 61 59 57 62 60 62 63 66 67 68 70 71 71 71 70 70 70 71 70 70 70 71 71 71 71 71 71 71 71 70 69 68 67 66 65 65
26 28 27 22 21 21 20 18 18 18 38 54 60 56 62 64 62 64 62 63 64 66 68 69 70 71 71 70 70 71 71 70 70 70 71 71 71 71 71 71 72 71 70 70 70 68 66 65 65
21 25 21 21 20 19 18 17 18 31 36 52 57 58 60 63 65 62 61 62 63 66 67 68 69 70 71 71 71 70 70 70 70 70 70 70 71 71 70 71 71 71 70 71 71 70 68 67 66
12 21 19 16 18 17 17 17 19 20 24 53 56 60 61 64 64 61 63 63 64 65 67 68 68 69 70 71 71 70 70 70 70 70 70 71 71 71 70 71 71 70 70 70 70 69 68 67 66
12 11 12 15 14 15 15 16 18 17 26 50 59 56 61 63 66 66 67 66 66 67 67 68 68 68 68 69 70 70 70 70 70 70 71 71 71 71 71 71 71 70 70 70 70 70 69 69 68
15 12 12 15 13 10 15 15 15 15 26 52 58 53 57 63 67 67 67 66 66 67 67 67 68 68 67 67 68 69 69 70 70 70 70 70 70 70 70 70 70 70 70 69 69 68 68 68 69
16 12 11 11 11 12 16 15 15 16 25 54 59 59 60 65 66 66 66 66 66 66 66 67 67 67 67 67 68 68 68 68 69 69 69 69 69 69 69 68 68 68 68 67 67 67 68 68 68
18 13 10 13 14 14 17 16 16 14 14 43 53 60 64 65 65 65 65 64 64 65 65 66 66 66 66 67 68 67 68 68 68 67 67 67 67 67 67 67 68 68 67 67 67 67 66 66 66
24 17 16 19 19 26 22 20 15 15 13 23 33 58 62 64 64 64 64 64 64 64 65 65 64 65 66 66 66 66 66 66 66 66 66 65 65 66 65 65 65 66 66 66 67 66 66 66 67
30 27 27 29 30 28 27 21 21 19 19 18 34 57 62 62 63 63 63 64 64 64 64 65 65 65 65 65 65 65 65 65 65 66 65 64 64 63 63 63 62 61 62 62 63 65 66 65 62
29 30 32 31 31 30 29 26 24 22 21 21 28 60 62 62 62 62 63 64 65 65 65 65 66 65 64 64 65 64 64 64 65 64 64 62 61 61 60 60 60 59 59 59 59 59 60 60 61
34 34 32 31 29 28 26 25 22 23 23 22 25 55 61 61 61 62 62 63 64 65 66 66 66 65 64 64 64 64 63 62 61 59 59 62 60 59 59 58 58 58 57 56 57 57 56 55 57
36 31 31 25 25 25 27 23 23 24 24 23 22 40 59 61 61 61 61 62 64 65 65 66 66 65 63 62 62 62 61 59 57 55 54 57 59 58 57 57 56 55 51 51 50 49 51 50 50
32 32 22 21 27 28 26 25 26 27 27 26 21 19 45 58 60 61 61 62 63 64 64 65 61 60 59 59 58 57 57 55 53 52 51 52 52 53 56 56 51 49 48 48 48 47 47 45 45
33 19 26 28 29 29 28 27 27 30 29 28 26 25 22 48 58 60 60 61 62 63 63 63 58 56 55 55 55 54 54 52 51 50 49 49 49 51 51 50 48 48 47 47 46 46 46 43 42
24 29 30 28 30 31 30 28 29 30 28 29 31 32 30 26 43 57 59 59 61 62 62 60 56 54 53 52 52 51 51 50 49 48 48 47 47 49 49 48 46 47 46 46 45 44 45 43 41
33 32 32 32 32 31 30 30 30 29 29 32 33 34 35 34 31 48 58 58 59 60 59 58 55 53 52 51 49 48 48 48 48 47 46 46 45 46 46 45 46 45 44 44 44 44 42 41 43
35 33 32 32 32 31 31 30 31 28 33 34 34 35 37 38 38 39 56 56 56 57 58 56 54 53 53 51 49 47 46 46 46 46 45 44 44 44 44 43 44 44 44 44 44 43 42 41 43
33 32 31 30 30 31 30 29 29 31 34 34 34 36 39 40 42 43 53 53 54 55 55 54 54 53 52 51 48 45 44 44 44 43 43 43 43 43 43 43 44 44 44 43 43 43 42 38 42
30 32 31 31 28 26 29 26 28 29 32 32 33 37 40 46 47 48 50 51 53 54 54 54 53 53 52 51 49 46 44 42 42 42 42 43 43 43 44 44 45 44 44 43 42 43 43 41 39
31 32 30 28 27 27 27 27 26 31 31 31 33 38 43 46 47 48 50 51 52 53 53 53 53 53 52 51 49 46 43 42 42 42 41 42 43 43 44 44 44 43 43 42 41 40 41 42 40
30 25 27 27 26 24 26 26 26 28 30 32 34 37 42 45 46 49 50 51 52 53 53 53 53 53 52 49 48 46 44 42 41 41 41 41 42 42 43 43 42 42 41 40 39 39 39 39 38
25 25 25 23 23 22 27 26 27 31 32 31 31 35 39 44 45 47 49 50 51 51 52 53 52 51 50 48 47 46 44 42 41 41 41 41 41 41 42 42 42 41 40 39 38 37 37 36 36
25 25 25 22 21 22 29 25 29 30 28 30 32 33 36 40 44 45 47 48 49 50 51 51 50 50 49 48 47 46 44 42 41 41 41 41 41 41 42 42 41 40 39 38 37 36 35 35 34
29 25 27 26 29 25 26 31 32 34 27 26 26 30 32 37 39 42 45 45 47 48 48 48 48 48 48 48 47 46 44 42 41 41 41 41 41 41 42 41 39 39 38 37 36 35 34 33 33
30 28 25 27 22 22 25 27 27 33 28 25 23 28 31 34 36 38 40 42 44 46 46 47 47 46 47 48 47 46 44 43 42 41 41 41 41 42 41 40 38 37 37 36 35 34 33 32 32
30 28 30 29 27 22 21 25 29 31 27 25 22 23 30 31 32 33 37 40 41 44 45 46 46 45 45 45 47 46 45 45 43 41 41 41 42 42 41 39 37 36 35 35 34 33 32 30 30
27 30 30 27 28 29 25 25 28 24 23 27 26 23 16 29 31 32 35 39 42 43 45 45 46 45 44 44 44 45 45 45 43 42 41 42 41 41 40 39 36 34 33 33 32 31 31 29 29
Wind_Speed
11 8 2 4 1 5 5 4 4 15 1 4 10 6 14 2 7 4 5 7 20 20 15 14 16 18 19 18 18 18 19 19 17 18 18 17 16 16 13 15 13 12 12 12 13 13 12 12 12
6 1 5 3 3 3 4 5 13 11 0 16 13 8 4 4 2 4 13 8 18 19 15 13 16 17 17 17 17 17 17 18 17 16 16 16 15 14 12 13 13 11 11 10 11 11 11 11 11
1 3 3 4 4 3 3 5 18 15 14 3 7 3 3 5 5 14 11 17 16 14 13 14 17 16 17 18 16 16 16 17 17 17 16 15 14 13 11 12 11 10 9 9 8 8 8 10 10
1 3 5 3 1 5 4 17 21 11 8 10 9 7 1 4 8 9 19 23 20 15 14 17 18 17 17 18 18 16 16 16 16 16 15 14 13 13 11 10 10 9 9 8 7 6 5 5 8
5 4 2 4 2 5 6 13 12 3 3 1 1 6 4 6 4 21 23 21 25 18 16 16 18 17 17 16 17 16 16 15 14 14 14 13 12 11 11 9 9 9 8 6 6 6 4 2 3
3 3 1 2 4 6 5 11 14 15 8 3 4 6 4 3 15 14 15 17 18 23 17 15 16 16 17 16 16 16 16 15 14 13 12 12 11 10 10 9 8 8 8 7 5 4 3 2 0
3 3 3 3 4 4 7 16 10 12 11 4 7 7 3 8 9 14 11 11 12 13 17 16 14 15 16 16 17 16 16 15 14 13 12 11 10 9 9 8 7 7 7 6 4 4 3 2 2
4 3 2 4 2 3 9 11 6 9 4 1 2 4 6 11 16 15 14 14 13 13 13 16 15 14 14 14 16 16 15 15 14 13 12 11 10 9 8 7 7 6 6 5 4 4 3 2 2
3 0 3 3 2 3 8 13 8 7 4 4 4 2 5 24 20 18 16 11 12 11 12 14 15 13 13 12 12 14 14 14 14 12 12 10 7 7 7 6 7 7 7 7 6 5 4 4 4
1 3 6 3 4 13 7 5 14 9 17 1 3 5 16 20 23 26 25 23 19 18 15 13 13 13 13 10 12 12 11 11 11 10 10 8 7 8 7 4 5 5 7 8 7 5 5 5 5
4 4 3 5 8 16 11 11 4 7 9 8 8 5 17 15 16 18 19 20 18 15 16 16 15 13 14 12 12 10 10 10 10 10 10 8 7 7 5 5 2 3 3 2 3 5 6 4 5
5 4 5 10 10 9 15 9 11 9 12 13 10 18 24 22 23 23 19 14 14 16 14 14 15 15 13 10 10 10 10 10 10 10 11 9 7 6 4 3 2 1 2 2 2 1 2 2 2
5 5 13 14 14 14 10 16 16 19 20 21 8 14 24 27 27 18 14 14 18 20 16 17 16 16 15 13 11 10 11 10 9 9 8 7 7 6 4 3 2 1 1 1 3 4 4 4 5
7 12 17 12 20 15 17 10 3 16 21 18 16 19 25 26 29 16 18 21 24 19 21 20 18 16 15 13 14 13 11 10 9 7 5 6 6 6 5 4 2 2 2 2 2 2 4 4 6
7 11 15 10 7 5 3 5 6 15 16 20 20 18 25 27 24 26 31 26 25 23 19 20 19 18 19 17 15 13 12 11 10 7 5 4 6 6 6 6 6 5 4 5 5 6 5 7 6
5 4 5 4 8 5 2 8 14 15 16 21 18 13 17 28 27 28 23 24 22 17 22 21 16 18 18 16 15 14 14 13 11 8 6 5 4 3 6 8 6 4 4 5 6 6 7 8 7
2 8 5 8 4 6 4 11 10 22 16 19 17 17 10 17 18 23 23 25 25 24 24 22 21 21 19 17 16 16 17 14 11 9 7 6 4 4 7 9 7 7 5 4 4 3 3 6 8
6 5 4 6 7 9 19 16 15 15 10 11 13 13 11 11 21 26 22 22 22 20 23 21 16 16 16 15 13 10 8 8 10 11 9 8 6 6 7 8 7 8 8 6 4 4 4 3 7
3 7 11 14 19 11 17 11 13 9 6 9 9 10 11 11 13 15 19 21 21 20 22 21 21 17 18 13 12 10 9 6 5 5 7 8 6 6 7 6 7 8 8 7 8 6 6 4 4
15 15 18 14 15 4 12 20 15 7 2 3 5 7 8 9 11 8 18 24 27 20 16 16 17 15 12 12 7 4 6 3 3 2 3 4 4 2 4 6 8 9 8 7 8 7 6 3 7
17 13 16 15 14 5 8 10 8 3 6 10 14 16 15 15 14 8 15 18 18 24 23 20 19 17 14 11 10 8 8 6 3 3 1 2 3 2 3 4 5 5 5 7 7 9 9 8 3
14 14 20 19 7 7 4 10 2 4 8 10 15 18 18 20 17 13 13 14 15 13 17 20 19 16 13 11 12 11 7 6 4 6 3 3 2 2 2 3 4 5 4 5 5 5 8 7 10
13 19 15 9 4 1 5 6 4 8 3 6 10 15 19 19 17 16 16 19 18 18 18 18 17 14 13 14 13 15 11 7 5 6 8 5 2 2 2 4 4 5 3 2 2 4 7 8 8
6 5 3 3 1 8 9 13 4 5 10 4 5 10 14 16 16 14 13 17 18 18 18 17 17 17 14 14 13 14 15 13 10 10 11 9 6 4 3 4 5 7 7 4 1 1 2 5 4
5 6 3 3 5 8 1 6 4 9 9 10 10 8 9 11 14 14 13 14 14 17 18 16 15 13 13 17 16 15 15 17 19 17 15 13 11 8 8 6 7 6 6 7 5 3 3 2 3
11 12 9 7 6 3 6 6 5 10 7 7 6 5 7 9 9 12 11 12 12 13 16 17 14 11 12 13 15 14 15 16 17 16 15 15 15 12 10 9 9 8 8 6 7 6 5 5 6
8 14 11 3 2 4 5 2 3 8 9 9 7 5 7 6 7 9 10 13 14 16 19 19 17 17 18 19 17 17 16 18 20 17 14 14 11 11 14 15 13 11 9 9 8 8 8 9 8
15 13 6 4 7 10 6 7 10 16 12 11 10 11 8 6 8 10 9 8 7 11 13 13 11 10 11 16 17 17 17 16 15 13 17 15 13 14 15 14 13 13 12 11 10 9 10 12 10
7 12 3 9 6 8 6 7 5 18 12 5 4 4 13 12 11 7 5 10 10 8 11 13 12 15 15 12 12 15 16 14 13 16 16 16 13 14 15 14 14 13 14 14 13 12 12 13 11
5 16 18 16 12 5 4 4 8 14 11 12 11 11 3 9 11 7 7 4 8 8 8 10 10 10 10 9 10 13 13 10 11 14 16 16 19 17 19 16 15 15 14 13 14 13 10 13 12
Wind_Direction
325 321 137 49 344 42 311 304 293 307 11 311 137 154 177 109 167 214 333 165 136 143 150 163 158 152 150 148 143 142 140 138 138 136 134 135 134 130 128 120 115 114 115 115 112 105 100 97 96
330 19 52 87 91 53 4 270 3 360 57 98 76 60 112 169 119 144 129 151 138 142 145 157 158 155 152 151 152 148 147 144 143 143 143 141 137 132 135 127 124 121 120 119 115 111 106 101 98
82 44 93 91 100 110 320 310 320 318 182 130 128 50 164 177 161 162 144 133 126 133 144 155 155 157 155 153 154 152 153 152 150 151 149 145 143 140 144 137 132 127 124 123 118 112 112 109 101
67 39 56 81 204 262 256 301 304 297 194 237 146 117 137 308 170 175 144 137 135 139 148 155 151 152 155 156 156 159 159 157 157 156 153 151 150 148 150 147 141 136 136 133 129 123 113 109 114
40 57 99 91 249 262 271 307 322 330 293 150 0 160 156 343 116 139 147 147 147 143 149 152 150 152 152 155 155 160 159 161 162 160 156 153 153 152 154 157 148 143 141 134 128 135 127 107 93
63 85 21 197 235 269 309 327 20 20 358 132 81 120 160 124 133 146 144 148 147 150 150 150 153 153 154 156 157 160 161 163 161 162 158 155 156 157 159 163 160 153 150 142 145 147 148 151 42
104 93 203 247 244 292 355 342 32 355 358 10 122 143 259 169 139 131 123 119 134 142 148 151 154 156 153 157 160 162 161 159 159 161 159 155 157 161 165 170 167 163 158 157 168 178 193 236 239
103 105 208 233 185 265 352 358 334 12 27 36 127 223 192 189 146 131 133 142 147 154 157 153 151 154 155 159 160 160 159 158 158 160 157 156 163 165 172 176 177 178 178 179 195 210 228 232 268
113 342 231 262 256 287 347 350 331 328 358 349 348 224 269 147 141 141 147 153 163 166 163 158 156 156 156 158 161 159 159 158 158 154 154 155 164 169 174 189 192 192 192 200 207 225 245 259 262
137 211 215 249 327 310 314 323 314 336 326 296 326 351 132 149 163 167 173 179 181 180 179 170 159 160 158 160 162 162 159 157 156 155 156 156 172 173 168 153 180 205 210 217 221 228 244 271 285
351 248 312 328 352 339 317 316 344 315 301 296 293 183 152 165 184 187 190 187 182 177 183 176 176 175 166 164 162 164 163 160 160 160 156 148 147 158 170 160 171 196 197 232 238 237 241 250 265
324 276 359 315 319 319 316 310 308 263 271 287 257 194 173 182 196 197 197 191 172 182 187 180 177 172 172 158 164 167 164 168 161 160 155 155 151 151 167 149 180 203 111 138 134 292 147 182 288
233 320 316 302 297 294 273 285 281 277 272 278 252 191 194 196 203 205 188 176 178 188 181 183 176 176 172 167 167 167 170 168 157 151 155 162 168 173 172 167 194 117 45 125 119 109 108 91 87
316 307 303 305 294 284 282 298 307 292 284 271 253 214 209 206 207 190 186 191 195 187 186 181 180 175 166 167 168 171 167 155 143 138 154 180 178 179 177 167 178 171 121 96 102 123 119 103 107
296 304 311 277 278 281 7 325 261 287 314 305 282 226 215 216 212 201 202 199 192 195 177 175 178 171 169 168 169 168 162 152 142 134 127 144 176 183 166 156 157 163 146 130 119 89 93 92 83
307 299 311 288 310 287 138 293 310 325 335 334 313 293 228 228 217 214 202 201 192 185 182 182 171 169 162 163 160 160 157 152 144 135 123 107 117 153 177 168 159 149 127 132 124 115 99 103 109
320 262 254 314 326 300 14 302 294 312 323 329 338 334 312 257 237 228 205 198 187 184 180 181 170 161 157 152 147 150 151 148 143 135 132 114 98 142 150 148 148 144 141 127 128 94 120 131 111
248 245 249 249 297 313 309 278 282 296 347 354 355 356 342 303 253 230 205 198 188 182 179 168 150 146 141 131 124 119 124 135 148 151 149 134 116 137 152 150 153 158 153 144 131 139 71 115 110
316 286 293 283 284 304 294 287 304 315 12 2 1 352 342 331 310 269 199 184 172 176 175 153 152 147 138 134 137 136 152 155 138 142 144 138 137 153 158 162 162 168 172 174 156 139 146 124 133
263 276 282 286 278 238 278 299 300 279 356 324 329 347 340 327 329 318 181 172 177 165 149 141 136 132 126 117 110 127 143 147 141 138 121 119 116 138 180 180 175 171 164 166 172 172 155 142 169
247 239 257 249 285 281 320 294 254 57 55 14 3 341 347 340 336 328 182 161 150 151 147 140 135 130 131 135 112 93 84 75 99 123 137 68 85 67 180 178 182 178 176 197 195 192 183 171 180
247 230 247 255 248 289 26 292 288 274 58 32 15 6 359 4 12 55 96 86 106 107 110 117 120 130 140 163 176 173 184 192 187 179 179 161 138 149 160 171 177 182 199 203 210 213 194 172 185
236 261 238 225 252 223 230 264 246 135 60 52 21 20 34 31 32 42 77 92 89 93 98 105 125 149 170 185 189 189 191 177 169 173 175 178 179 170 149 162 165 169 165 188 225 231 228 203 185
223 151 65 54 124 267 237 209 244 293 161 139 69 40 50 62 72 77 86 107 118 123 129 141 162 181 179 195 201 202 202 192 187 193 197 199 192 197 179 155 151 155 149 166 200 259 216 224 189
186 147 249 285 218 239 339 188 244 154 147 142 119 76 47 65 84 100 107 123 138 145 152 167 182 185 191 205 209 208 211 204 207 198 201 201 200 202 197 182 171 169 160 149 143 130 98 79 133
197 189 184 225 224 247 295 233 195 158 126 125 108 98 64 59 74 96 126 145 153 160 168 171 185 199 209 217 224 222 215 211 213 204 202 208 209 200 184 185 179 167 157 147 141 130 118 108 105
182 213 200 182 86 295 230 97 52 134 141 128 127 111 99 109 121 132 152 149 154 171 183 179 180 205 202 217 225 230 218 209 212 211 206 209 202 193 188 181 174 166 157 150 144 136 132 123 116
205 150 175 205 216 234 239 212 192 186 169 154 134 166 167 172 177 174 162 158 168 191 192 196 200 205 215 222 225 227 220 212 213 205 216 211 199 187 185 184 173 165 160 157 154 147 144 137 132
155 196 164 181 190 222 233 243 238 160 159 138 21 89 203 206 217 224 182 182 177 181 196 207 199 208 215 213 225 232 231 221 214 213 211 205 191 188 184 180 173 170 168 166 161 160 152 145 137
179 205 190 201 212 224 219 274 113 131 100 54 2 339 9 231 268 275 272 253 194 188 179 192 213 223 226 218 224 235 242 233 227 221 212 196 195 187 182 179 176 174 172 163 162 157 147 142 133